Change the Weather History Date:

Thursday, July 4, 2013

  Actual Average Record
Temperature  
Mean Temperature 80 °F 68 °F  
Max Temperature 98 °F 84 °F 98 °F (2007)
Min Temperature 62 °F 52 °F 44 °F (2003)
Degree Days  
Heating Degree Days 0    
Month to date heating degree days 0  
Since 1 June heating degree days 37  
Since 1 July heating degree days 0  
Cooling Degree Days 15    
Month to date cooling degree days 44  
Year to date cooling degree days 199  
Since 1 June cooling degree days 144  
Growing Degree Days 30 (Base 50)    
Moisture  
Dew Point 54 °F    
Average Humidity 50    
Maximum Humidity 84    
Minimum Humidity 15    
Precipitation  
Precipitation 0.00 in 0.00 in 0.02 in (1942)
Month to date precipitation 0.00 0.00  
Year to date precipitation 6.52 22.09  
Since 1 July precipitation 0.00 0.00  
Sea Level Pressure  
Sea Level Pressure 29.69 in    
Wind  
Wind Speed 9 mph (SSW)    
Max Wind Speed 24 mph    
Max Gust Speed 31 mph    
Visibility 10 miles    
Events      
T = Trace of Precipitation, MM = Missing Value Source: NWS Daily Summary

Daily Weather History Graph

Daily Weather History Graph

Search for Another Location

Airport or City:

Trip Planner

Search our weather history database for the weather conditions in past years. The results will help you decide how hot, cold, wet, or windy it might be!

Date:

Astronomy

Jul. 04, 2013 Rise Set
Actual Time 5:52 AM PDT 8:38 PM PDT
Civil Twilight 5:21 AM PDT 9:10 PM PDT
Nautical Twilight 4:41 AM PDT 9:49 PM PDT
Astronomical Twilight 3:56 AM PDT 10:34 PM PDT
Moon 3:11 AM PDT (7/4) 5:48 PM PDT (7/4)
Length of Visible Light 15h 49m
Length of Day
14h 46m
Waning Crescent, 11% of the Moon is Illuminated
Jul 4
Waning Crescent
Jul 8
New
Jul 15
First Quarter
Jul 22
Full
Jul 29
Last Quarter

Hourly Weather History & Observations

Time (PDT) Temp. Heat Index Dew Point Humidity Pressure Visibility Wind Dir Wind Speed Gust Speed Precip Events Conditions
12:53 AM 63.0 °F - 55.9 °F 78% 29.78 in 10.0 mi Calm Calm - N/A   Clear
1:53 AM 63.0 °F - 57.0 °F 81% 29.74 in 10.0 mi WNW 3.5 mph - N/A   Clear
2:53 AM 64.0 °F - 57.0 °F 78% 29.72 in 10.0 mi Calm Calm - N/A   Clear
3:53 AM 64.0 °F - 57.9 °F 80% 29.70 in 10.0 mi SSE 5.8 mph - N/A   Clear
4:53 AM 63.0 °F - 57.0 °F 81% 29.70 in 10.0 mi SSE 8.1 mph - N/A   Clear
5:53 AM 64.0 °F - 57.0 °F 78% 29.72 in 10.0 mi South 3.5 mph - N/A   Clear
6:53 AM 64.0 °F - 57.0 °F 78% 29.73 in 10.0 mi SSE 4.6 mph - N/A   Scattered Clouds
7:53 AM 68.0 °F - 57.0 °F 68% 29.73 in 10.0 mi SSE 4.6 mph - N/A   Partly Cloudy
8:53 AM 71.1 °F - 57.9 °F 63% 29.73 in 10.0 mi South 4.6 mph - N/A   Clear
9:53 AM 78.1 °F - 59.0 °F 52% 29.74 in 10.0 mi South 5.8 mph - N/A   Clear
10:53 AM 82.9 °F 83.2 °F 60.1 °F 46% 29.74 in 10.0 mi South 8.1 mph - N/A   Haze
11:53 AM 86.0 °F 86.3 °F 62.1 °F 44% 29.73 in 10.0 mi South 9.2 mph - N/A   Haze
12:53 PM 86.0 °F 86.3 °F 62.1 °F 44% 29.72 in 10.0 mi South 9.2 mph - N/A   Haze
1:53 PM 88.0 °F 88.4 °F 62.1 °F 42% 29.70 in 10.0 mi South 12.7 mph - N/A   Haze
2:53 PM 89.1 °F 88.8 °F 60.1 °F 38% 29.68 in 10.0 mi SSE 11.5 mph - N/A   Haze
3:53 PM 91.0 °F 90.5 °F 60.1 °F 35% 29.66 in 10.0 mi South 9.2 mph - N/A   Haze
4:53 PM 91.9 °F 91.5 °F 60.1 °F 34% 29.64 in 10.0 mi SSE 6.9 mph - N/A   Haze
5:53 PM 93.9 °F 94.8 °F 62.1 °F 35% 29.63 in 10.0 mi Variable 4.6 mph - N/A   Haze
6:19 PM 96.8 °F - 44.6 °F 17% 29.65 in 10.0 mi NW 23.0 mph 31.1 mph N/A   Haze
6:53 PM 95.0 °F - 41.0 °F 15% 29.63 in 10.0 mi WNW 20.7 mph 31.1 mph N/A   Haze
7:53 PM 90.0 °F - 41.0 °F 18% 29.64 in 10.0 mi WNW 16.1 mph 27.6 mph N/A   Clear
8:53 PM 84.9 °F - 39.9 °F 20% 29.65 in 10.0 mi NNW 6.9 mph - N/A   Clear
9:53 PM 82.9 °F - 39.9 °F 22% 29.66 in 10.0 mi NW 10.4 mph - N/A   Clear
10:53 PM 79.0 °F - 39.9 °F 25% 29.67 in 10.0 mi NW 11.5 mph - N/A   Clear
11:53 PM 77.0 °F - 41.0 °F 28% 29.67 in 10.0 mi NW 13.8 mph - N/A   Clear